1502211600.49,12479,23.69,74384.3,8.67,-21.03,-23.13,0,*7E
1502211601.69,12480,23.69,74386.8,8.69,-21.09,-23.13,0,*7C
1502211602.93,12481,23.69,74390.3,8.69,-21.03,-23.09,0,*7C
1502211604.18,12482,23.69,74392.5,8.67,-21.03,-23.09,0,*71
1502211605.46,12483,23.69,74392.3,8.67,-21.23,-23.29,0,*70
1502211606.69,12484,23.69,74390.3,8.67,-21.39,-23.43,0,*70
1502211607.94,12485,23.69,74394.5,8.67,-21.47,-23.53,0,*79
1502211609.16,12486,23.69,74388.5,8.67,-21.39,-23.59,0,*79
1502211610.36,12487,23.69,74388.3,8.65,-21.63,-23.79,0,*77
1502211611.59,12488,23.69,74386.5,8.65,-21.73,-23.85,0,*7A
1502211612.84,12489,23.69,74382.0,8.65,-21.53,-23.69,0,*7B
1502211614.12,12490,23.69,74382.8,8.63,-21.57,-23.69,0,*71
1502211615.37,12491,23.69,74380.0,8.63,-21.27,-23.43,0,*7F
1502211616.58,12492,23.69,74382.5,8.65,-21.39,-23.43,0,*75
1502211617.84,12493,23.69,74386.0,8.63,-21.27,-23.43,0,*7D
1502211619.09,12494,23.69,74390.0,8.65,-21.23,-23.29,0,*74
1502211620.34,12495,23.69,74384.0,8.63,-21.13,-23.29,0,*70
1502211621.59,12496,23.69,74382.0,8.63,-21.13,-23.29,0,*73
1502211622.82,12497,23.69,74384.0,8.65,-20.99,-22.97,0,*73
1502211624.07,12498,23.69,74386.5,8.63,-20.83,-22.97,0,*71
1502211625.31,12499,23.69,74386.5,8.65,-20.83,-22.97,0,*76
1502211626.53,12500,23.69,74384.0,8.65,-20.79,-22.87,0,*73
1502211627.78,12501,23.69,74384.3,8.63,-20.83,-22.83,0,*75
1502211629.01,12502,23.69,74388.3,8.65,-20.79,-22.87,0,*71
1502211630.27,12503,23.69,74386.5,8.65,-20.99,-23.19,0,*78
1502211631.49,12504,23.69,74382.8,8.63,-21.09,-23.13,0,*7B
1502211632.69,12505,23.69,74386.0,8.65,-21.09,-23.13,0,*7C
1502211633.95,12506,23.69,74390.3,8.63,-20.83,-22.97,0,*77
1502211635.17,12507,23.69,74388.5,8.65,-20.79,-22.83,0,*70
1502211636.4,12508,23.69,74390.8,8.63,-21.09,-23.13,0,*77
1502211637.65,12509,23.69,74388.3,8.63,-20.83,-22.87,0,*79
1502211638.88,12510,23.69,74390.0,8.65,-20.79,-22.87,0,*72
1502211640.1,12511,23.69,74394.3,8.65,-21.09,-23.03,0,*78
1502211641.33,12512,23.69,74394.0,8.63,-21.09,-22.97,0,*71
1502211642.56,12513,23.69,74392.8,8.65,-20.99,-23.13,0,*73
1502211643.81,12514,23.69,74392.8,8.63,-20.83,-22.97,0,*74
1502211645.06,12515,23.69,74392.5,8.63,-20.79,-22.87,0,*71
1502211646.29,12516,23.69,74394.5,8.63,-20.69,-22.87,0,*73
1502211647.51,12517,23.69,74392.3,8.65,-20.79,-22.87,0,*75
1502211648.77,12518,23.69,74388.8,8.63,-21.09,-23.03,0,*77
1502211649.97,12519,23.69,74390.8,8.65,-20.93,-22.97,0,*7E
1502211651.2,12520,23.69,74392.5,8.65,-20.79,-22.87,0,*71
1502211652.42,12521,23.69,74394.5,8.65,-20.83,-22.87,0,*75
1502211653.63,12522,23.69,74396.8,8.65,-20.93,-22.97,0,*76
1502211654.83,12523,23.69,74400.3,8.65,-21.09,-23.13,0,*78
1502211656.09,12524,23.69,74396.8,8.65,-21.23,-23.19,0,*7D
1502211657.37,12525,23.69,74396.0,8.63,-21.23,-23.19,0,*7A
1502211658.63,12526,23.69,74394.5,8.63,-21.23,-23.43,0,*76
1502211659.88,12527,23.69,74390.8,8.63,-21.09,-23.19,0,*70
1502211661.13,12528,23.69,74390.0,8.63,-20.93,-23.03,0,*76
1502211662.41,12529,23.69,74390.8,8.63,-20.83,-23.03,0,*76
1502211663.69,12530,23.69,74392.5,8.63,-20.83,-23.03,0,*7E
1502211664.89,12531,23.69,74380.5,8.65,-21.39,-23.59,0,*76
1502211666.14,12532,23.69,74378.5,8.63,-21.13,-23.29,0,*7C
1502211667.37,12533,23.69,74376.3,8.63,-20.93,-22.97,0,*70
1502211668.6,12534,23.69,74378.3,8.63,-20.93,-22.97,0,*77
1502211669.85,12535,23.69,74382.3,8.63,-20.83,-22.97,0,*77
1502211671.1,12536,23.69,74390.8,8.63,-21.13,-23.33,0,*73
1502211672.35,12537,23.69,74390.5,8.63,-21.13,-23.29,0,*79
1502211673.63,12538,23.69,74388.5,8.63,-20.99,-23.19,0,*76
1502211674.89,12539,23.69,74394.5,8.63,-20.99,-23.13,0,*7D
1502211676.14,12540,23.69,74394.3,8.59,-21.13,-23.33,0,*7B
1502211677.39,12541,23.69,74384.5,8.59,-21.17,-23.23,0,*7F
1502211678.62,12542,23.69,74394.3,8.59,-20.89,-23.09,0,*72
1502211679.88,12543,23.69,74392.8,8.59,-20.89,-23.03,0,*79
1502211681.14,12544,23.69,74392.5,8.59,-20.99,-23.09,0,*75
1502211682.39,12545,23.69,74390.3,8.63,-20.83,-22.97,0,*70
1502211683.64,12546,23.69,74390.0,8.63,-20.63,-22.73,0,*77
1502211684.87,12547,23.69,74388.8,8.63,-20.63,-22.83,0,*79
1502211686.1,12548,23.69,74386.5,8.63,-20.63,-22.83,0,*76
1502211687.33,12549,23.69,74386.3,8.63,-20.69,-22.83,0,*7D
1502211688.56,12550,23.69,74384.3,8.63,-20.59,-22.83,0,*76
1502211689.79,12551,23.69,74390.3,8.63,-20.63,-22.87,0,*7A
1502211691.04,12552,23.69,74390.0,8.63,-20.83,-22.87,0,*77
1502211692.26,12553,23.69,74386.8,8.65,-20.79,-22.87,0,*75
1502211693.49,12554,23.69,74388.8,8.63,-20.93,-23.13,0,*7C
1502211694.77,12555,23.69,74388.0,8.63,-20.99,-23.03,0,*76
1502211696.05,12556,23.69,74390.3,8.63,-20.99,-23.03,0,*75
1502211697.3,12557,23.69,74390.5,8.63,-20.99,-23.13,0,*75
1502211698.56,12558,23.69,74384.0,8.63,-21.09,-23.19,0,*78
1502211699.81,12559,23.69,74384.8,8.63,-21.23,-23.43,0,*7E
1502211701.06,12560,23.69,74388.3,8.63,-21.13,-23.33,0,*70
1502211702.35,12561,23.69,74386.0,8.59,-21.27,-23.23,0,*7E
1502211703.63,12562,23.69,74388.0,8.59,-21.03,-23.19,0,*72
1502211704.88,12563,23.69,74390.0,8.59,-21.13,-23.19,0,*72
1502211706.14,12564,23.69,74388.5,8.59,-20.99,-23.09,0,*77
1502211707.37,12565,23.69,74388.5,8.57,-21.03,-23.09,0,*7A
1502211708.62,12566,23.69,74390.5,8.59,-20.89,-23.03,0,*7E
1502211709.88,12567,23.69,74388.3,8.59,-21.13,-23.23,0,*7F
1502211711.08,12568,23.69,74390.0,8.57,-21.17,-23.39,0,*71
1502211712.33,12569,23.69,74384.3,8.59,-21.03,-23.09,0,*78
1502211713.58,12570,23.69,74380.8,8.59,-20.93,-23.03,0,*72
1502211714.81,12571,23.69,74382.5,8.57,-20.79,-22.97,0,*75
1502211716.06,12572,23.69,74384.8,8.63,-20.79,-22.97,0,*71
1502211717.32,12573,23.69,74386.3,8.63,-20.93,-23.03,0,*78
1502211718.57,12574,23.69,74384.3,8.59,-20.89,-23.03,0,*7D
1502211719.77,12575,23.69,74382.5,8.57,-20.73,-22.97,0,*7B
1502211721.03,12576,23.69,74388.8,8.59,-20.83,-22.93,0,*7D
1502211722.28,12577,23.69,74386.0,8.59,-21.03,-23.09,0,*77
1502211723.51,12578,23.69,74384.5,8.59,-21.13,-23.09,0,*79
1502211724.74,12579,23.69,74386.0,8.57,-21.13,-23.23,0,*7E
1502211725.97,12580,23.69,74384.8,8.57,-21.17,-23.29,0,*76
1502211727.22,12581,23.69,74388.5,8.59,-21.13,-23.23,0,*77
1502211728.47,12582,23.69,74386.8,8.59,-21.13,-23.33,0,*75
1502211729.7,12583,23.69,74384.3,8.57,-21.33,-23.43,0,*7F
1502211730.93,12584,23.69,74386.8,8.57,-21.23,-23.43,0,*79
1502211732.18,12585,23.69,74386.0,8.63,-21.13,-23.29,0,*70
1502211733.43,12586,23.69,74390.5,8.57,-21.23,-23.29,0,*77
1502211734.65,12587,23.69,74386.5,8.57,-21.17,-23.29,0,*71
1502211735.87,12588,23.69,74386.5,8.57,-21.17,-23.29,0,*7E
1502211737.1,12589,23.69,74384.5,8.57,-20.93,-23.03,0,*7A
1502211738.35,12590,23.69,74384.3,8.57,-21.23,-23.29,0,*70
1502211739.6,12591,23.69,74390.8,8.55,-21.17,-23.29,0,*74
1502211740.8,12592,23.69,74388.3,8.57,-20.93,-23.09,0,*7A
1502211742.05,12593,23.69,74386.5,8.55,-20.79,-23.09,0,*7D
1502211743.28,12594,23.69,74388.3,8.57,-20.79,-23.09,0,*78
1502211744.48,12595,23.69,74386.5,8.57,-20.89,-23.13,0,*7D
1502211745.7,12596,23.69,74384.8,8.57,-21.17,-23.29,0,*71
1502211746.93,12597,23.69,74390.0,8.57,-21.33,-23.39,0,*77
1502211748.15,12598,23.69,74390.0,8.57,-21.09,-23.23,0,*7A
1502211749.38,12599,23.69,74388.0,8.57,-21.03,-23.13,0,*72
1502211750.61,12600,23.69,74384.3,8.57,-21.03,-23.13,0,*71
1502211751.83,12601,23.69,74390.8,8.57,-21.17,-23.29,0,*7C
1502211753.06,12602,23.69,74390.0,8.57,-21.09,-23.23,0,*7A
1502211754.33,12603,23.69,74388.5,8.55,-21.23,-23.29,0,*7B
1502211755.57,12604,23.69,74388.0,8.55,-21.33,-23.39,0,*7C
1502211756.8,12605,23.69,74384.8,8.53,-21.57,-23.75,0,*71
1502211758.05,12606,23.69,74384.8,8.55,-21.17,-23.29,0,*79
1502211759.29,12607,23.69,74386.0,8.55,-21.09,-23.29,0,*77
1502211760.54,12608,23.69,74388.5,8.53,-21.27,-23.29,0,*72
1502211761.8,12609,23.69,74390.5,8.53,-21.23,-23.33,0,*7C
1502211763.07,12610,23.69,74388.8,8.55,-21.33,-23.53,0,*75
1502211764.32,12611,23.69,74390.8,8.55,-21.09,-23.23,0,*7A
1502211765.54,12612,23.69,74388.8,8.55,-20.93,-23.09,0,*73
1502211766.77,12613,23.69,74388.3,8.53,-21.09,-23.19,0,*77
1502211768.0,12614,23.69,74384.8,8.53,-20.99,-23.13,0,*72
1502211769.23,12615,23.69,74384.8,8.53,-20.93,-23.03,0,*78
1502211770.48,12616,23.69,74382.8,8.55,-21.03,-23.13,0,*74
1502211771.74,12617,23.69,74386.0,8.55,-21.03,-23.09,0,*7E
1502211772.99,12618,23.69,74382.5,8.53,-20.99,-23.19,0,*74
1502211774.22,12619,23.69,74376.3,8.53,-20.99,-23.13,0,*7F
1502211775.43,12620,23.69,74382.5,8.53,-20.93,-22.97,0,*72
1502211776.66,12621,23.69,74382.8,8.53,-21.09,-23.19,0,*76
1502211777.9,12622,23.69,74386.5,8.55,-21.17,-23.29,0,*7F
1502211779.16,12623,23.69,74386.5,8.53,-21.23,-23.33,0,*74
1502211780.38,12624,23.69,74386.0,8.53,-21.13,-23.33,0,*70
1502211781.61,12625,23.69,74388.8,8.53,-21.39,-23.49,0,*74
1502211782.84,12626,23.69,74390.8,8.53,-21.39,-23.49,0,*77
1502211784.04,12627,23.69,74390.3,8.53,-21.43,-23.59,0,*7A
1502211785.27,12628,23.69,74388.0,8.53,-21.27,-23.43,0,*7C
1502211786.52,12629,23.69,74388.5,8.53,-21.27,-23.33,0,*7A
1502211787.73,12630,23.69,74386.3,8.53,-21.13,-23.13,0,*77
1502211788.96,12631,23.69,74386.0,8.53,-21.23,-23.43,0,*70
1502211790.21,12632,23.69,74388.5,8.51,-21.13,-23.29,0,*7E
1502211791.45,12633,23.69,74388.0,8.51,-21.13,-23.29,0,*7F
1502211792.7,12634,23.69,74394.5,8.51,-21.13,-23.19,0,*7B
1502211793.98,12635,23.69,74392.0,8.51,-21.27,-23.33,0,*75
1502211795.2,12636,23.69,74392.3,8.53,-21.43,-23.49,0,*7B
1502211796.48,12637,23.69,74388.8,8.51,-21.27,-23.33,0,*77
1502211797.7,12638,23.69,74388.3,8.51,-21.39,-23.43,0,*70
1502211798.96,12639,23.69,74392.8,8.51,-21.27,-23.43,0,*7E
1502211800.18,12640,23.69,74394.0,8.49,-21.33,-23.39,0,*71
1502211801.45,12641,23.69,74394.5,8.51,-21.23,-23.29,0,*79
1502211802.69,12642,23.69,74390.3,8.49,-21.17,-23.23,0,*7E
1502211803.92,12643,23.69,74386.0,8.49,-21.17,-23.23,0,*7F
1502211805.17,12644,23.69,74390.3,8.49,-21.03,-23.19,0,*74
1502211806.39,12645,23.69,74390.3,8.51,-21.09,-23.13,0,*7C
1502211807.65,12646,23.69,74392.3,8.49,-21.03,-23.19,0,*76
1502211808.9,12647,23.69,74392.0,8.51,-20.99,-23.13,0,*76
1502211810.12,12648,23.69,74384.5,8.51,-21.39,-23.39,0,*7A
1502211811.34,12649,23.69,74386.8,8.51,-20.93,-23.13,0,*72
1502211812.57,12650,23.69,74390.8,8.49,-20.89,-23.19,0,*72
1502211813.84,12651,23.69,74388.3,8.51,-20.79,-23.03,0,*7E
1502211815.08,12652,23.69,74384.5,8.49,-20.99,-23.09,0,*70
1502211816.33,12653,23.69,74382.5,8.51,-20.99,-23.13,0,*73
1502211817.58,12654,23.69,74380.3,8.49,-20.99,-23.19,0,*77
1502211818.81,12655,23.69,74386.3,8.49,-21.13,-23.23,0,*7C
1502211820.06,12656,23.69,74378.3,8.51,-20.99,-23.13,0,*76
1502211821.29,12657,23.69,74386.0,8.49,-20.99,-23.09,0,*75
1502211822.54,12658,23.69,74384.3,8.51,-20.79,-22.87,0,*7A
1502211823.77,12659,23.69,74384.5,8.49,-21.03,-23.09,0,*79
1502211825.02,12660,23.69,74386.8,8.51,-20.93,-23.03,0,*78
1502211826.24,12661,23.69,74386.3,8.51,-20.93,-23.13,0,*78
1502211827.47,12662,23.69,74386.0,8.51,-20.93,-23.13,0,*7B
1502211828.69,12663,23.69,74382.8,8.51,-21.09,-23.13,0,*78
1502211829.91,12664,23.69,74380.8,8.49,-21.13,-23.33,0,*7F
1502211831.16,12665,23.69,74382.8,8.49,-21.33,-23.33,0,*7C
1502211832.38,12666,23.69,74386.5,8.49,-21.33,-23.39,0,*75
1502211833.62,12667,23.69,74384.0,8.49,-21.17,-23.23,0,*79
1502211834.89,12668,23.69,74384.8,8.51,-21.23,-23.29,0,*72
1502211836.14,12669,23.69,74384.8,8.49,-21.33,-23.33,0,*70
1502211837.39,12670,23.69,74378.3,8.49,-21.03,-23.19,0,*73
1502211838.62,12671,23.69,74382.3,8.49,-20.99,-23.09,0,*71
1502211839.85,12672,23.69,74380.8,8.49,-21.13,-23.23,0,*79
1502211841.1,12673,23.69,74380.3,8.49,-21.27,-23.33,0,*7E
1502211842.34,12674,23.69,74384.8,8.49,-20.89,-23.03,0,*7F
1502211843.54,12675,23.69,74384.0,8.49,-20.89,-23.09,0,*74
1502211844.75,12676,23.69,74384.3,8.49,-20.89,-22.93,0,*75
1502211845.98,12677,23.75,74384.3,8.49,-20.99,-23.09,0,*77
1502211847.24,12678,23.69,74384.3,8.49,-21.03,-23.23,0,*72
1502211848.47,12679,23.69,74382.3,8.49,-20.99,-23.09,0,*79
1502211849.72,12680,23.69,74378.0,8.49,-21.03,-23.19,0,*7C
1502211850.95,12681,23.69,74378.3,8.49,-20.89,-23.03,0,*75
1502211852.21,12682,23.69,74378.8,8.49,-20.83,-23.03,0,*7C
1502211853.45,12683,23.69,74384.5,8.51,-20.79,-22.87,0,*7C
1502211854.7,12684,23.75,74386.0,8.51,-20.83,-22.97,0,*7F
1502211855.93,12685,23.69,74382.8,8.49,-20.83,-22.83,0,*72
1502211857.16,12686,23.69,74378.5,8.49,-20.83,-22.83,0,*71
1502211858.36,12687,23.69,74384.5,8.49,-20.69,-22.87,0,*70
1502211859.56,12688,23.69,74386.8,8.49,-20.63,-22.93,0,*70
1502211860.79,12689,23.69,74386.0,8.49,-20.79,-22.87,0,*7F
1502211862.04,12690,23.69,74388.8,8.51,-20.63,-22.77,0,*7A
1502211863.26,12691,23.69,74384.8,8.49,-20.79,-22.93,0,*73
1502211864.52,12692,23.69,74386.3,8.51,-20.63,-22.77,0,*78
1502211865.76,12693,23.69,74388.3,8.51,-20.79,-22.87,0,*7D
1502211867.01,12694,23.69,74390.3,8.51,-20.79,-22.97,0,*7B
1502211868.24,12695,23.69,74390.0,8.51,-20.73,-22.97,0,*70
1502211869.48,12696,23.69,74384.0,8.51,-20.79,-22.87,0,*78
1502211870.71,12697,23.69,74386.0,8.51,-20.73,-22.97,0,*72
1502211871.91,12698,23.69,74388.3,8.53,-20.73,-22.87,0,*7E
1502211873.11,12699,23.69,74388.5,8.53,-20.59,-22.83,0,*73
1502211874.36,12700,23.69,74390.3,8.51,-20.73,-23.03,0,*71
1502211875.64,12701,23.75,74390.8,8.51,-20.83,-23.03,0,*7F
1502211876.92,12702,23.69,74388.0,8.51,-20.83,-23.03,0,*7C
1502211878.14,12703,23.69,74390.8,8.51,-20.93,-22.97,0,*70
1502211879.37,12704,23.69,74390.0,8.49,-20.89,-23.03,0,*79
1502211880.65,12705,23.75,74390.3,8.51,-20.83,-23.03,0,*7B
1502211881.9,12706,23.75,74392.3,8.51,-20.93,-23.03,0,*79
1502211883.15,12707,23.69,74386.8,8.51,-20.99,-23.13,0,*73
1502211884.41,12708,23.69,74384.8,8.53,-20.83,-23.03,0,*74
1502211885.64,12709,23.69,74386.3,8.49,-20.99,-23.09,0,*7F
1502211886.86,12710,23.69,74390.0,8.51,-20.73,-22.83,0,*79
1502211888.08,12711,23.69,74390.8,8.51,-20.73,-22.83,0,*78
1502211889.33,12712,23.69,74392.0,8.51,-20.93,-23.03,0,*7C
1502211890.58,12713,23.69,74390.8,8.49,-21.03,-23.23,0,*7E
1502211891.86,12714,23.69,74390.5,8.51,-20.83,-23.19,0,*70
1502211893.09,12715,23.69,74386.8,8.51,-20.73,-22.97,0,*79
1502211894.36,12716,23.75,74392.8,8.51,-20.79,-23.03,0,*7C
1502211895.61,12717,23.75,74394.0,8.51,-21.09,-23.19,0,*70
1502211896.83,12718,23.75,74392.8,8.49,-21.09,-23.19,0,*76
1502211898.08,12719,23.75,74388.0,8.51,-21.09,-23.33,0,*76
1502211899.27,12720,23.69,74390.0,8.49,-21.17,-23.39,0,*70
1502211900.5,12721,23.69,74392.0,8.49,-21.13,-23.29,0,*74
1502211901.72,12722,23.69,74394.3,8.49,-21.17,-23.33,0,*78
1502211902.92,12723,23.75,74402.0,8.49,-21.17,-23.39,0,*73
1502211904.17,12724,23.69,74396.3,8.49,-21.33,-23.53,0,*7E
1502211905.39,12725,23.69,74390.5,8.49,-21.43,-23.53,0,*78
1502211906.64,12726,23.69,74390.0,8.49,-21.33,-23.49,0,*77
1502211907.84,12727,23.69,74390.3,8.49,-21.17,-23.39,0,*77
1502211909.06,12728,23.69,74394.0,8.49,-21.17,-23.33,0,*72
1502211910.29,12729,23.69,74388.5,8.49,-20.89,-23.19,0,*7D
1502211911.52,12730,23.69,74384.3,8.47,-20.93,-23.09,0,*71
1502211912.75,12731,23.69,74388.5,8.49,-20.79,-22.87,0,*7D
1502211913.97,12732,23.69,74392.0,8.49,-20.79,-22.93,0,*7B
1502211915.17,12733,23.69,74396.8,8.49,-20.69,-22.83,0,*7A
1502211916.4,12734,23.69,74390.8,8.49,-20.79,-22.93,0,*7D
1502211917.63,12735,23.69,74386.5,8.49,-20.83,-23.09,0,*7B
1502211918.89,12736,23.69,74384.5,8.49,-20.99,-23.23,0,*7B
1502211920.14,12737,23.69,74388.5,8.47,-20.83,-22.97,0,*71
1502211921.39,12738,23.75,74394.3,8.49,-20.79,-23.03,0,*79
1502211922.65,12739,23.69,74388.0,8.49,-20.99,-23.19,0,*7D
1502211923.9,12740,23.69,74384.0,8.51,-20.83,-22.97,0,*76
1502211925.12,12741,23.69,74386.3,8.49,-20.79,-22.87,0,*7A
1502211926.38,12742,23.69,74386.0,8.49,-20.83,-23.03,0,*71
1502211927.63,12743,23.75,74386.0,8.49,-20.83,-23.03,0,*70
1502211928.88,12744,23.75,74390.0,8.49,-20.83,-23.03,0,*77
1502211930.12,12745,23.75,74390.8,8.47,-20.89,-22.97,0,*7E
1502211931.32,12746,23.69,74386.8,8.49,-20.69,-22.93,0,*79
1502211932.58,12747,23.69,74392.8,8.47,-20.83,-22.97,0,*76
1502211933.81,12748,23.75,74390.3,8.49,-20.83,-22.93,0,*73
1502211935.04,12749,23.69,74388.5,8.49,-20.89,-23.03,0,*70
1502211936.26,12750,23.75,74394.3,8.49,-20.79,-22.93,0,*7F
1502211937.49,12751,23.69,74392.5,8.49,-20.79,-22.93,0,*7E
1502211938.7,12752,23.75,74398.0,8.49,-20.89,-23.09,0,*70
1502211939.95,12753,23.69,74396.8,8.49,-20.99,-23.19,0,*71
1502211941.21,12754,23.75,74396.8,8.49,-20.99,-23.23,0,*7F
1502211942.44,12755,23.75,74398.0,8.47,-20.93,-23.13,0,*79
1502211943.67,12756,23.69,74392.0,8.47,-20.93,-23.09,0,*71
1502211944.92,12757,23.69,74392.5,8.47,-20.83,-22.93,0,*73
1502211946.16,12758,23.75,74392.0,8.47,-20.89,-23.09,0,*74
1502211947.39,12759,23.69,74390.0,8.47,-20.93,-23.09,0,*7E
1502211948.62,12760,23.69,74392.3,8.47,-20.93,-23.13,0,*7F
1502211949.85,12761,23.75,74392.0,8.47,-20.89,-23.09,0,*7E
1502211951.1,12762,23.75,74394.8,8.47,-21.33,-23.39,0,*7E
1502211952.35,12763,23.69,74392.8,8.45,-21.33,-23.53,0,*71
1502211953.62,12764,23.69,74398.8,8.47,-21.23,-23.29,0,*78
1502211954.9,12765,23.69,74396.8,8.47,-21.23,-23.29,0,*79
1502211956.13,12766,23.69,74392.8,8.45,-21.09,-23.23,0,*7A
1502211957.39,12767,23.75,74396.0,8.47,-21.03,-23.09,0,*7B
1502211958.64,12768,23.69,74394.3,8.47,-21.03,-23.13,0,*7F
1502211959.9,12769,23.69,74392.0,8.47,-21.03,-23.09,0,*75
1502211961.13,12770,23.69,74388.0,8.47,-20.89,-23.09,0,*7E
1502211962.36,12771,23.75,74392.0,8.47,-20.93,-23.09,0,*74
1502211963.59,12772,23.69,74392.5,8.45,-20.73,-22.77,0,*73
1502211964.82,12773,23.69,74394.0,8.47,-20.93,-23.13,0,*7D
1502211966.08,12774,23.75,74392.8,8.45,-21.03,-23.23,0,*73
1502211967.33,12775,23.69,74388.8,8.45,-21.23,-23.29,0,*7A
1502211968.55,12776,23.69,74386.3,8.45,-21.09,-23.29,0,*71
1502211969.75,12777,23.69,74386.8,8.45,-20.93,-23.13,0,*7B
1502211970.95,12778,23.75,74388.5,8.45,-21.09,-23.13,0,*76
1502211972.16,12779,23.69,74388.5,8.45,-21.09,-23.13,0,*77
1502211973.39,12780,23.75,74386.5,8.45,-20.83,-22.93,0,*7B
1502211974.62,12781,23.75,74386.3,8.45,-20.83,-22.97,0,*7E
1502211975.83,12782,23.75,74382.5,8.45,-20.69,-22.63,0,*72
1502211977.06,12783,23.69,74386.8,8.45,-20.83,-22.97,0,*7C
1502211978.27,12784,23.69,74382.5,8.45,-20.89,-22.97,0,*71
1502211979.52,12785,23.75,74386.3,8.41,-20.93,-23.03,0,*73
1502211980.8,12786,23.75,74390.3,8.41,-20.99,-23.19,0,*71
1502211982.03,12787,23.69,74384.8,8.41,-21.13,-23.09,0,*72
1502211983.3,12788,23.75,74386.8,8.41,-20.99,-23.19,0,*7F
1502211984.56,12789,23.75,74386.3,8.41,-21.13,-23.23,0,*74
1502211985.81,12790,23.75,74382.5,8.41,-21.13,-23.23,0,*7C
1502211987.03,12791,23.75,74382.8,8.39,-21.17,-23.33,0,*77
1502211988.28,12792,23.75,74380.8,8.41,-21.13,-23.23,0,*7E
1502211989.56,12793,23.75,74382.3,8.41,-20.99,-23.19,0,*75
1502211990.81,12794,23.75,74380.3,8.41,-20.93,-23.03,0,*73
1502211992.03,12795,23.69,74380.0,8.41,-20.93,-22.87,0,*7F
1502211993.28,12796,23.75,74380.5,8.41,-20.83,-22.87,0,*7D
1502211994.51,12797,23.75,74382.8,8.41,-20.93,-23.09,0,*7A
1502211995.77,12798,23.75,74384.3,8.41,-20.99,-23.09,0,*7F
1502211997.02,12799,23.75,74382.8,8.41,-21.13,-23.23,0,*75
1502211998.24,12800,23.75,74382.0,8.39,-21.17,-23.33,0,*70
1502211999.51,12801,23.75,74384.5,8.41,-21.27,-23.33,0,*7D
1502212000.76,12802,23.75,74386.3,8.39,-21.27,-23.33,0,*71
1502212002.0,12803,23.75,74380.8,8.41,-21.13,-23.33,0,*78
1502212003.23,12804,23.75,74386.8,8.39,-21.13,-23.23,0,*71
1502212004.48,12805,23.75,74382.0,8.39,-20.99,-23.19,0,*7A
1502212005.7,12806,23.75,74380.0,8.39,-21.13,-23.23,0,*73
1502212006.9,12807,23.75,74380.0,8.39,-20.93,-23.09,0,*73
1502212008.14,12808,23.69,74376.0,8.39,-20.99,-23.03,0,*7C
1502212009.37,12809,23.69,74380.8,8.41,-20.93,-23.09,0,*72
1502212010.59,12810,23.75,74386.8,8.39,-20.99,-23.09,0,*7F
1502212011.79,12811,23.75,74390.5,8.39,-20.93,-22.97,0,*72
1502212013.02,12812,23.75,74388.8,8.41,-20.93,-23.09,0,*78
1502212014.27,12813,23.69,74382.3,8.41,-21.13,-23.23,0,*78
1502212015.49,12814,23.69,74376.3,8.39,-21.13,-23.19,0,*79
1502212016.72,12815,23.75,74386.3,8.39,-21.03,-23.09,0,*78
1502212017.94,12816,23.75,74390.3,8.39,-21.03,-23.09,0,*7B
1502212019.19,12817,23.75,74388.3,8.39,-21.27,-23.23,0,*74
1502212020.41,12818,23.75,74390.3,8.39,-21.17,-23.23,0,*78
1502212021.66,12819,23.75,74394.8,8.39,-21.27,-23.33,0,*7B
1502212022.87,12820,23.69,74384.3,8.39,-21.43,-23.49,0,*7E
1502212024.06,12821,23.75,74380.5,8.39,-21.43,-23.39,0,*78
1502212025.28,12822,23.75,74386.8,8.35,-21.33,-23.39,0,*70
1502212026.53,12823,23.75,74392.5,8.35,-21.53,-23.53,0,*7B
1502212027.75,12824,23.75,74388.5,8.35,-21.17,-23.29,0,*71
1502212029.0,12825,23.69,74388.8,8.33,-21.43,-23.33,0,*7C
1502212030.21,12826,23.75,74386.8,8.39,-21.17,-23.33,0,*74
1502212031.44,12827,23.69,74384.8,8.35,-21.23,-23.39,0,*74
1502212032.69,12828,23.75,74390.5,8.33,-21.13,-23.19,0,*7C
1502212033.91,12829,23.75,74390.5,8.35,-20.99,-23.09,0,*79
1502212035.14,12830,23.75,74392.0,8.35,-20.99,-22.93,0,*73
1502212036.39,12831,23.69,74388.8,8.35,-20.99,-23.03,0,*7A
1502212037.64,12832,23.75,74392.8,8.33,-21.09,-23.19,0,*7C
1502212038.87,12833,23.75,74396.3,8.35,-20.99,-23.09,0,*72
1502212040.12,12834,23.75,74392.0,8.35,-21.03,-23.23,0,*7F
1502212041.37,12835,23.75,74392.8,8.33,-21.13,-23.19,0,*70
1502212042.64,12836,23.75,74394.0,8.33,-21.23,-23.33,0,*78
1502212043.91,12837,23.75,74394.3,8.33,-21.27,-23.29,0,*76
1502212045.15,12838,23.75,74388.0,8.33,-21.13,-23.29,0,*7E
1502212046.4,12839,23.75,74392.8,8.33,-21.13,-23.33,0,*74
1502212047.64,12840,23.75,74392.3,8.33,-21.09,-23.29,0,*7A
1502212048.86,12841,23.75,74392.8,8.33,-21.13,-23.13,0,*79
1502212050.1,12842,23.75,74390.5,8.33,-21.13,-23.29,0,*73
1502212051.33,12843,23.75,74394.5,8.35,-20.99,-23.09,0,*75
1502212052.61,12844,23.75,74392.8,8.33,-21.03,-23.19,0,*77
1502212053.85,12845,23.75,74394.5,8.33,-21.03,-23.13,0,*7C
1502212055.13,12846,23.75,74398.3,8.33,-21.23,-23.33,0,*7F
1502212056.37,12847,23.75,74400.5,8.33,-21.13,-23.29,0,*76
1502212057.64,12848,23.75,74396.3,8.33,-21.23,-23.33,0,*71
1502212058.92,12849,23.75,74398.0,8.33,-21.27,-23.33,0,*74
1502212060.16,12850,23.75,74396.8,8.33,-21.39,-23.33,0,*73
1502212061.36,12851,23.75,74398.0,8.31,-21.39,-23.43,0,*77
1502212062.58,12852,23.75,74392.3,8.31,-21.23,-23.43,0,*7F
1502212063.83,12853,23.69,74394.5,8.31,-21.23,-23.49,0,*74
1502212065.05,12854,23.75,74400.5,8.31,-21.43,-23.49,0,*75
1502212066.3,12855,23.75,74394.5,8.29,-21.57,-23.75,0,*77
1502212067.54,12856,23.75,74392.5,8.29,-21.57,-23.79,0,*78
1502212068.76,12857,23.75,74388.3,8.31,-21.57,-23.75,0,*7C
1502212070.01,12858,23.75,74392.0,8.29,-21.47,-23.69,0,*76
1502212071.28,12859,23.75,74392.8,8.29,-21.33,-23.49,0,*76
1502212072.53,12860,23.75,74394.0,8.29,-21.47,-23.69,0,*7D
1502212073.8,12861,23.69,74386.8,8.29,-21.33,-23.53,0,*76
1502212075.04,12862,23.75,74384.3,8.29,-21.47,-23.69,0,*7F
1502212076.31,12863,23.75,74380.0,8.29,-21.57,-23.65,0,*73
1502212077.53,12864,23.75,74380.8,8.27,-21.43,-23.65,0,*7F
1502212078.74,12865,23.75,74382.5,8.27,-21.47,-23.65,0,*7A
1502212079.99,12866,23.75,74380.3,8.27,-21.33,-23.49,0,*74
1502212081.18,12867,23.75,74380.5,8.27,-21.17,-23.39,0,*74
1502212082.37,12868,23.75,74382.3,8.27,-21.17,-23.39,0,*7B
1502212083.6,12869,23.75,74382.8,8.27,-21.13,-23.23,0,*75
1502212084.81,12870,23.69,74380.3,8.27,-21.27,-23.39,0,*71
1502212086.01,12871,23.75,74384.5,8.27,-21.13,-23.39,0,*77
1502212087.22,12872,23.75,74390.3,8.27,-21.09,-23.33,0,*75
1502212088.45,12873,23.75,74390.0,8.27,-21.13,-23.23,0,*7E
1502212089.67,12874,23.75,74390.5,8.25,-21.17,-23.39,0,*74
1502212090.88,12875,23.75,74390.3,8.27,-21.13,-23.33,0,*79
1502212092.14,12876,23.75,74394.3,8.25,-21.23,-23.43,0,*7C
1502212093.33,12877,23.75,74394.5,8.27,-21.17,-23.39,0,*75
1502212094.52,12878,23.75,74392.8,8.27,-21.17,-23.39,0,*7A
1502212095.72,12879,23.75,74392.0,8.27,-21.17,-23.39,0,*7B
1502212096.94,12880,23.75,74390.0,8.27,-21.13,-23.33,0,*73
1502212098.16,12881,23.75,74392.5,8.25,-21.17,-23.39,0,*7E
1502212099.38,12882,23.75,74390.8,8.25,-21.17,-23.39,0,*7D
1502212100.6,12883,23.75,74394.3,8.25,-21.17,-23.39,0,*7C
1502212101.81,12884,23.75,74392.3,8.25,-21.17,-23.39,0,*7B
1502212103.01,12885,23.75,74398.3,8.27,-21.17,-23.39,0,*78